Location: LDNL
(36.4545°S, 141.6685°E)
Time: 12:47:36
(UTC+11:00)

Courier 1B Rocket - Pass Details

Date: 30 January 2023
Orbit: 920 x 1202 km, 28.2° (Epoch: 25 March)

Event Time Altitude Azimuth Distance (km) Brightness Sun altitude
Rises 12:11:34 0° 274° (W) 4,003 8.0 61.9°
Reaches altitude 10° 12:14:49 10° 284° (WNW) 2,999 7.5 62.5°
Maximum altitude 12:20:58 29° 341° (NNW) 1,847 7.1 63.5°
Drops below altitude 10° 12:26:46 10° 38° (NE) 2,811 8.0 64.3°
Sets 12:29:43 0° 49° (NE) 3,713 8.4 64.8°
